Worthington, MN

5:18 AM CST on December 14, 2019 (GMT -0600)
Worthington Municipal

Weather History for KOTG - October, 2019

Change the Weather History Date:

Tuesday, October 15, 2019

  Actual Average Record
Temperature  
Mean Temperature 42 °F -  
Max Temperature 48 °F 57 °F 79 °F (1973)
Min Temperature 37 °F 37 °F 23 °F (2018)
Degree Days  
Heating Degree Days 24    
Moisture  
Dew Point 36 °F    
Average Humidity 79    
Maximum Humidity 93    
Minimum Humidity 61    
Precipitation  
Precipitation 0.00 in - - ()
Sea Level Pressure  
Sea Level Pressure 29.99 in    
Wind  
Wind Speed 16 mph (NW)    
Max Wind Speed 29 mph    
Max Gust Speed 34 mph    
Visibility 10 miles    
Events      
Averages and records for this station are not official NWS values.
T = Trace of Precipitation, MM = Missing Value Source: NWS Daily Summary

Daily Weather History Graph

Daily Weather History Graph

Search for Another Location

Airport or City:

Astronomy

Oct. 15, 2019 Rise Set
Actual Time 7:36 AM CDT 6:39 PM CDT
Civil Twilight 7:07 AM CDT 7:08 PM CDT
Nautical Twilight 6:34 AM CDT 7:41 PM CDT
Astronomical Twilight 6:00 AM CDT 8:14 PM CDT
Moon 7:57 PM CDT (10/15) 9:09 AM CDT (10/15)
Length of Visible Light 12h 00m
Length of Day
11h 02m
Full, 97% of the Moon is Illuminated
Oct 15
Full
Oct 21
Last Quarter
Oct 27
New
Nov 4
First Quarter
Nov 12
Full

Hourly Weather History & Observations

Time (CDT) Temp. Windchill Dew Point Humidity Pressure Visibility Wind Dir Wind Speed Gust Speed Precip Events Conditions
12:56 AM 45.0 °F 41.2 °F 39.9 °F 82% 29.77 in 10.0 mi South 6.9 mph - N/A   Clear
1:56 AM 45.0 °F 40.6 °F 41.0 °F 86% 29.76 in 10.0 mi South 8.1 mph - N/A   Clear
2:56 AM 39.0 °F 34.0 °F 37.0 °F 93% 29.78 in 10.0 mi WNW 6.9 mph - N/A   Clear
3:56 AM 37.9 °F 30.9 °F 36.0 °F 93% 29.79 in 10.0 mi NNW 10.4 mph - N/A   Clear
4:56 AM 37.0 °F 28.5 °F 34.0 °F 89% 29.84 in 10.0 mi NW 13.8 mph - N/A   Clear
5:56 AM 37.9 °F 28.9 °F 35.1 °F 89% 29.87 in 10.0 mi WNW 16.1 mph - N/A   Clear
6:56 AM 39.0 °F 30.6 °F 35.1 °F 86% 29.88 in 10.0 mi WNW 15.0 mph - N/A   Clear
7:56 AM 39.9 °F 30.5 °F 35.1 °F 83% 29.91 in 10.0 mi WNW 19.6 mph 27.6 mph N/A   Clear
8:56 AM 39.0 °F 29.3 °F 36.0 °F 89% 29.94 in 10.0 mi WNW 19.6 mph - N/A   Clear
9:49 AM 42.8 °F 32.9 °F 37.4 °F 81% 29.92 in 10.0 mi WNW 26.5 mph 32.2 mph N/A   Mostly Cloudy
9:56 AM 41.0 °F 31.6 °F 37.0 °F 86% 29.97 in 10.0 mi WNW 20.7 mph 32.2 mph N/A   Mostly Cloudy
10:37 AM 42.8 °F 34.0 °F 35.6 °F 76% 29.94 in 10.0 mi NW 20.7 mph 27.6 mph N/A   Overcast
10:56 AM 42.1 °F 32.1 °F 35.1 °F 76% 29.98 in 10.0 mi WNW 25.3 mph 34.5 mph N/A   Overcast
11:45 AM 46.4 °F 38.7 °F 35.6 °F 66% 29.95 in 10.0 mi NW 20.7 mph 29.9 mph N/A   Overcast
11:56 AM 46.9 °F - 35.1 °F 63% 29.98 in 10.0 mi WNW 27.6 mph 33.4 mph N/A   Overcast
12:09 PM 46.4 °F 37.4 °F 33.8 °F 62% 29.95 in 10.0 mi NW 28.8 mph 34.5 mph N/A   Mostly Cloudy
12:56 PM 46.0 °F 37.4 °F 33.1 °F 61% 29.99 in 10.0 mi NW 25.3 mph 32.2 mph N/A   Mostly Cloudy
1:56 PM 46.0 °F 37.6 °F 33.1 °F 61% 29.99 in 10.0 mi WNW 24.2 mph 31.1 mph N/A   Overcast
2:56 PM 44.1 °F 35.4 °F 33.1 °F 65% 30.02 in 10.0 mi NW 21.9 mph 31.1 mph N/A   Overcast
3:21 PM 42.8 °F 34.5 °F 33.8 °F 70% 29.99 in 10.0 mi WNW 18.4 mph 27.6 mph N/A   Overcast
3:56 PM 43.0 °F 33.5 °F 34.0 °F 71% 30.04 in 10.0 mi NW 24.2 mph 31.1 mph N/A   Overcast
4:56 PM 43.0 °F 34.0 °F 34.0 °F 71% 30.08 in 10.0 mi NW 21.9 mph 28.8 mph N/A   Overcast
5:56 PM 42.1 °F 33.3 °F 34.0 °F 73% 30.09 in 10.0 mi NW 19.6 mph 23.0 mph N/A   Overcast
6:56 PM 41.0 °F 32.5 °F 36.0 °F 82% 30.12 in 10.0 mi NW 17.3 mph 25.3 mph N/A   Overcast
7:56 PM 41.0 °F 32.8 °F 36.0 °F 82% 30.14 in 10.0 mi NW 16.1 mph 20.7 mph N/A   Overcast
8:42 PM 41.0 °F 32.8 °F 35.6 °F 81% 30.10 in 10.0 mi NNW 16.1 mph - N/A   Overcast
8:56 PM 39.9 °F 30.8 °F 36.0 °F 86% 30.15 in 10.0 mi NNW 18.4 mph - N/A   Overcast
9:47 PM 39.2 °F 31.6 °F 37.4 °F 93% 30.13 in 10.0 mi NW 12.7 mph - N/A   Overcast
9:56 PM 39.9 °F 32.9 °F 37.0 °F 89% 30.18 in 10.0 mi NW 11.5 mph - N/A   Overcast
10:21 PM 39.2 °F 31.2 °F 37.4 °F 93% 30.14 in 10.0 mi NNW 13.8 mph 20.7 mph N/A   Overcast
10:56 PM 41.0 °F 31.9 °F 36.0 °F 82% 30.17 in 10.0 mi NNW 19.6 mph 23.0 mph N/A   Overcast
11:56 PM 39.9 °F 31.8 °F 34.0 °F 79% 30.19 in 10.0 mi NW 15.0 mph - N/A   Overcast